Mena, AR

9:28 AM CDT on April 23, 2018 (GMT -0500)
Mena

Weather History for KMEZ - January, 2013

Change the Weather History Date:

Sunday, January 27, 2013

  Actual Average (KFSM) Record (KFSM)
Temperature  
Mean Temperature 55 °F -  
Max Temperature 68 °F 49 °F 78 °F (1914)
Min Temperature 42 °F 29 °F 6 °F (1893)
Degree Days  
Heating Degree Days 10    
Growing Degree Days 5 (Base 50)    
Moisture  
Dew Point 53 °F    
Average Humidity 94    
Maximum Humidity 100    
Minimum Humidity 73    
Precipitation  
Precipitation 0.00 in - - ()
Sea Level Pressure  
Sea Level Pressure 30.09 in    
Wind  
Wind Speed 4 mph (SSE)    
Max Wind Speed 14 mph    
Max Gust Speed 29 mph    
Visibility 5 miles    
Events Fog , Rain    
Averages and records for this station are not official NWS values.
T = Trace of Precipitation, MM = Missing Value Source: NWS Daily Summary

Daily Weather History Graph

Daily Weather History Graph

Search for Another Location

Airport or City:

Astronomy

Jan. 27, 2013 Rise Set
Actual Time 7:17 AM CST 5:41 PM CST
Civil Twilight 6:51 AM CST 6:08 PM CST
Nautical Twilight 6:20 AM CST 6:38 PM CST
Astronomical Twilight 5:51 AM CST 7:08 PM CST
Moon 6:32 PM CST (1/27) 7:14 AM CST (1/27)
Length of Visible Light 11h 17m
Length of Day
10h 23m
Full, 100% of the Moon is Illuminated
Jan 27
Full
Feb 3
Last Quarter
Feb 10
New
Feb 17
First Quarter
Feb 25
Full

Hourly Weather History & Observations

Time (CST) Temp. Windchill Dew Point Humidity Pressure Visibility Wind Dir Wind Speed Gust Speed Precip Events Conditions
12:15 AM 42.8 °F 40.1 °F 42.8 °F 100% 30.19 in 1.8 mi East 4.6 mph - N/A   Overcast
12:35 AM 42.8 °F 39.3 °F 42.8 °F 100% 30.18 in 1.5 mi East 5.8 mph - N/A   Overcast
12:55 AM 42.8 °F 39.3 °F 42.8 °F 100% 30.17 in 1.2 mi East 5.8 mph - N/A   Overcast
1:15 AM 42.8 °F 39.3 °F 42.8 °F 100% 30.17 in 1.0 mi East 5.8 mph - N/A   Overcast
1:35 AM 42.8 °F 41.1 °F 42.8 °F 100% 30.17 in 1.0 mi East 3.5 mph - N/A   Overcast
1:55 AM 42.8 °F 41.1 °F 42.8 °F 100% 30.17 in 0.8 mi East 3.5 mph - N/A   Overcast
2:15 AM 42.8 °F 41.1 °F 42.8 °F 100% 30.17 in 0.8 mi ENE 3.5 mph - N/A   Overcast
2:35 AM 42.8 °F 41.1 °F 42.8 °F 100% 30.17 in 0.5 mi East 3.5 mph - N/A Fog Fog
3:15 AM 42.8 °F - 42.8 °F 100% 30.16 in 0.5 mi Calm Calm - N/A Fog Fog
3:35 AM 42.8 °F - 42.8 °F 100% 30.15 in 0.5 mi Calm Calm - N/A Fog Fog
3:55 AM 42.8 °F - 42.8 °F 100% 30.15 in 0.5 mi Calm Calm - N/A Fog Fog
4:15 AM 42.8 °F - 42.8 °F 100% 30.15 in 0.5 mi Calm Calm - N/A Fog Fog
4:35 AM 44.6 °F - 44.6 °F 100% 30.14 in 0.5 mi Calm Calm - N/A Fog Fog
4:55 AM 44.6 °F - 44.6 °F 100% 30.13 in 0.5 mi Calm Calm - N/A Fog Fog
5:15 AM 44.6 °F - 44.6 °F 100% 30.13 in 0.5 mi Calm Calm - N/A Fog Fog
5:35 AM 44.6 °F - 44.6 °F 100% 30.13 in 0.5 mi Calm Calm - N/A Fog Fog
5:55 AM 44.6 °F - 44.6 °F 100% 30.14 in 0.5 mi Calm Calm - N/A Fog Fog
6:15 AM 44.6 °F - 44.6 °F 100% 30.14 in 0.5 mi Calm Calm - N/A Fog Fog
6:35 AM 44.6 °F - 44.6 °F 100% 30.15 in 0.5 mi Calm Calm - N/A Fog Fog
6:55 AM 44.6 °F - 44.6 °F 100% 30.15 in 0.5 mi Calm Calm - N/A Fog Fog
7:15 AM 44.6 °F - 44.6 °F 100% 30.15 in 0.5 mi Calm Calm - N/A Fog Fog
7:35 AM 44.6 °F - 44.6 °F 100% 30.15 in 0.5 mi Calm Calm - N/A Fog Fog
7:55 AM 44.6 °F - 44.6 °F 100% 30.16 in 0.2 mi Calm Calm - N/A Fog Fog
8:15 AM 44.6 °F - 44.6 °F 100% 30.16 in 0.2 mi Calm Calm - N/A   Light Drizzle
8:35 AM 44.6 °F - 44.6 °F 100% 30.15 in 0.5 mi Calm Calm - N/A Fog Fog
8:55 AM 44.6 °F - 44.6 °F 100% 30.15 in 0.5 mi Calm Calm - N/A Fog Fog
9:15 AM 46.4 °F - 46.4 °F 100% 30.16 in 0.5 mi Calm Calm - N/A Fog Fog
9:35 AM 46.4 °F - 46.4 °F 100% 30.15 in 1.2 mi Calm Calm - N/A   Overcast
9:55 AM 48.2 °F - 48.2 °F 100% 30.15 in 2.0 mi NE 3.5 mph - N/A   Overcast
10:15 AM 50.0 °F - 50.0 °F 100% 30.15 in 2.5 mi Calm Calm - N/A   Overcast
10:35 AM 53.6 °F - 53.6 °F 100% 30.15 in 4.0 mi SW 3.5 mph - N/A   Overcast
10:55 AM 57.2 °F - 57.2 °F 100% 30.15 in 10.0 mi South 9.2 mph - N/A   Overcast
11:15 AM 57.2 °F - 57.2 °F 100% 30.15 in 7.0 mi SSW 8.1 mph - N/A   Overcast
11:35 AM 57.2 °F - 57.2 °F 100% 30.14 in 7.0 mi SSW 10.4 mph 16.1 mph N/A   Overcast
11:55 AM 59.0 °F - 59.0 °F 100% 30.12 in 10.0 mi SSW 6.9 mph - N/A   Overcast
12:15 PM 60.8 °F - 60.8 °F 100% 30.10 in 10.0 mi South 6.9 mph - N/A   Overcast
12:35 PM 60.8 °F - 59.0 °F 94% 30.09 in 7.0 mi SSW 8.1 mph - N/A   Overcast
12:55 PM 60.8 °F - 59.0 °F 94% 30.09 in 7.0 mi SSW 4.6 mph - N/A   Overcast
1:15 PM 60.8 °F - 59.0 °F 94% 30.06 in 7.0 mi South 5.8 mph - N/A   Overcast
1:35 PM 60.8 °F - 59.0 °F 94% 30.06 in 7.0 mi South 3.5 mph - N/A   Overcast
1:55 PM 60.8 °F - 59.0 °F 94% 30.06 in 7.0 mi SSW 9.2 mph - N/A   Overcast
2:15 PM 60.8 °F - 59.0 °F 94% 30.05 in 10.0 mi South 4.6 mph - N/A   Overcast
2:35 PM 60.8 °F - 59.0 °F 94% 30.04 in 10.0 mi Calm Calm - N/A   Overcast
2:55 PM 60.8 °F - 59.0 °F 94% 30.03 in 10.0 mi Calm Calm - N/A   Overcast
3:15 PM 60.8 °F - 59.0 °F 94% 30.03 in 10.0 mi SSW 4.6 mph - N/A   Overcast
3:35 PM 60.8 °F - 59.0 °F 94% 30.04 in 7.0 mi SSE 3.5 mph - N/A   Overcast
3:55 PM 60.8 °F - 59.0 °F 94% 30.04 in 7.0 mi South 5.8 mph - N/A   Overcast
4:15 PM 60.8 °F - 60.8 °F 100% 30.04 in 7.0 mi Calm Calm - N/A   Overcast
4:35 PM 59.0 °F - 59.0 °F 100% 30.03 in 5.0 mi Calm Calm - N/A   Overcast
4:55 PM 60.8 °F - 60.8 °F 100% 30.03 in 7.0 mi Calm Calm - N/A   Overcast
5:15 PM 60.8 °F - 60.8 °F 100% 30.01 in 5.0 mi Calm Calm - N/A   Overcast
5:35 PM 60.8 °F - 60.8 °F 100% 30.02 in 7.0 mi Calm Calm - N/A   Mostly Cloudy
5:55 PM 62.6 °F - 60.8 °F 94% 30.02 in 10.0 mi Calm Calm - N/A   Mostly Cloudy
6:15 PM 62.6 °F - 62.6 °F 100% 30.02 in 10.0 mi SE 4.6 mph - N/A   Mostly Cloudy
6:35 PM 64.4 °F - 62.6 °F 94% 30.02 in 10.0 mi SE 5.8 mph - N/A   Mostly Cloudy
6:55 PM 64.4 °F - 62.6 °F 94% 30.02 in 10.0 mi SSE 3.5 mph - N/A   Mostly Cloudy
7:15 PM 64.4 °F - 62.6 °F 94% 30.03 in 10.0 mi SE 6.9 mph - N/A   Mostly Cloudy
7:35 PM 66.2 °F - 62.6 °F 88% 30.02 in 10.0 mi SE 5.8 mph - N/A   Mostly Cloudy
7:55 PM 66.2 °F - 60.8 °F 83% 30.03 in 10.0 mi SE 9.2 mph - N/A   Scattered Clouds
8:15 PM 68.0 °F - 59.0 °F 73% 30.02 in 10.0 mi SSE 10.4 mph 19.6 mph N/A   Mostly Cloudy
8:35 PM 68.0 °F - 59.0 °F 73% 30.02 in 10.0 mi SSE 11.5 mph 18.4 mph N/A   Mostly Cloudy
8:55 PM 68.0 °F - 59.0 °F 73% 30.02 in 10.0 mi SSE 9.2 mph 18.4 mph N/A   Mostly Cloudy
9:15 PM 68.0 °F - 59.0 °F 73% 30.01 in 10.0 mi SSE 5.8 mph 21.9 mph N/A   Overcast
9:35 PM 68.0 °F - 59.0 °F 73% 30.01 in 10.0 mi South 9.2 mph 26.5 mph N/A   Mostly Cloudy
9:55 PM 68.0 °F - 59.0 °F 73% 30.01 in 10.0 mi South 12.7 mph 25.3 mph N/A   Overcast
10:15 PM 68.0 °F - 59.0 °F 73% 30.01 in 10.0 mi South 8.1 mph 24.2 mph N/A   Overcast
10:35 PM 68.0 °F - 59.0 °F 73% 30.00 in 10.0 mi South 11.5 mph 28.8 mph N/A   Overcast
10:55 PM 68.0 °F - 60.8 °F 78% 30.00 in 10.0 mi South 13.8 mph 23.0 mph N/A   Overcast
11:15 PM 66.2 °F - 60.8 °F 83% 30.01 in 10.0 mi South 11.5 mph 26.5 mph N/A   Overcast
11:35 PM 66.2 °F - 60.8 °F 83% 30.02 in 10.0 mi South 11.5 mph 21.9 mph N/A Rain Rain
11:55 PM 64.4 °F - 62.6 °F 94% 30.02 in 10.0 mi South 12.7 mph 21.9 mph N/A   Overcast